This is the latest recevied weather packets stored in our database for station/object KB3UQE. If no packets are shown the sender has not sent any weather packets the latest 10 day(s).
| Time | Temp. | Humidity | Pressure | Rain* | Wind** | Luminosity | Snow |
|---|---|---|---|---|---|---|---|
| 1787614557 | 22.78° C | 62% | 1012.5 hPa | 0 mm | - | - | - |
| 1787613955 | 23.33° C | 62% | 1012.5 hPa | 0 mm | - | - | - |
| 1787613352 | 23.33° C | 59% | 1012.2 hPa | 0 mm | - | - | - |
| 1787612750 | 23.89° C | 58% | 1012.2 hPa | 0 mm | - | - | - |
| 1787612147 | 24.44° C | 56% | 1012.2 hPa | 0 mm | - | - | - |
| 1787611545 | 25° C | 54% | 1012.2 hPa | 0 mm | - | - | - |
| 1787610942 | 25° C | 54% | 1012.2 hPa | 0 mm | - | - | - |
| 1787610340 | 25° C | 53% | 1011.9 hPa | 0 mm | - | - | - |
| 1787609737 | 25.56° C | 52% | 1011.9 hPa | 0 mm | - | - | - |
| 1787609134 | 25.56° C | 53% | 1011.9 hPa | 0 mm | - | - | - |
| 1787608532 | 25.56° C | 52% | 1011.9 hPa | 0 mm | - | - | - |
| 1787607930 | 25.56° C | 52% | 1011.5 hPa | 0 mm | - | - | - |
| 1787607327 | 25.56° C | 49% | 1011.9 hPa | 0 mm | - | - | - |
| 1787606725 | 26.11° C | 50% | 1011.9 hPa | 0 mm | - | - | - |
| 1787606122 | 26.11° C | 50% | 1011.9 hPa | 0 mm | - | - | - |
| 1787605520 | 26.11° C | 49% | 1011.5 hPa | 0 mm | - | - | - |
| 1787604917 | 26.11° C | 50% | 1011.5 hPa | 0 mm | - | - | - |
| 1787604315 | 26.11° C | 50% | 1011.5 hPa | 0 mm | - | - | - |
| 1787603712 | 26.11° C | 52% | 1011.5 hPa | 0 mm | - | - | - |
| 1787603110 | 26.11° C | 49% | 1011.5 hPa | 0 mm | - | - | - |
| 1787602508 | 25.56° C | 53% | 1011.5 hPa | 0 mm | - | - | - |
| 1787601906 | 26.11° C | 50% | 1011.5 hPa | 0 mm | - | - | - |
| 1787601303 | 26.11° C | 53% | 1011.5 hPa | 0 mm | - | - | - |
| 1787600701 | 26.11° C | 55% | 1011.5 hPa | 0 mm | - | - | - |
| 1787600098 | 25.56° C | 53% | 1011.5 hPa | 0 mm | - | - | - |
* Rain since midnight (hover to see other rain measurements)
** Current wind speed in m/s (hover to see current wind gust speed)